[[{"header":{"parameterUnit":"m.s-1","parameterCategory":1,"la1":30.2991,"la2":30.254,"lo1":-89.0895,"lo2":-89.0444,"dy":0.0017,"dx":0.0017,"nx":28,"ny":28,"refTime":"2025-04-29T21:00:00:Z","depth":0,"parameterNumber":2,"parameterNumberName":"U-component_of_WINDS"},"data":[0,0,0,0,0,0,0,0,0,0,0,0,0,0,0,0,0,0,0,0,0,0,0,0,0,0,0,0,0,0,0,0,0,0,0,0,0,0,0,0,0,0,0,0,0,0,0,0,0,0,0,0,0,0,0,0,0,0,-2.5659,-2.5659,0,-2.569,-2.569,-2.5691,-2.5657,-2.5655,-2.5654,-2.5653,-2.5685,-2.5687,-2.5689,0,0,0,0,0,0,0,0,0,0,0,0,0,-2.5568,-2.557,-2.5659,-2.5659,-2.5659,-2.569,-2.569,-2.5691,-2.5657,-2.5655,-2.5654,-2.5652,-2.5684,-2.5686,-2.5689,0,0,0,0,0,0,0,0,0,0,0,0,0,-2.5604,-2.5571,-2.5658,-2.5646,-2.5645,-2.569,-2.569,-2.5691,-2.5657,-2.5655,-2.5653,-2.5652,-2.5683,-2.5686,-2.5689,-2.5747,0,0,-2.5699,-2.57,0,0,0,0,0,0,0,0,-2.5602,-2.5608,-2.5648,-2.5647,-2.5646,-2.5667,-2.567,-2.571,-2.5658,-2.5653,-2.5653,-2.5651,-2.568,-2.5684,-2.5694,-2.5749,-2.575,-2.5699,-2.5701,-2.5702,-2.5703,0,0,0,0,0,0,0,-2.56,-2.5606,-2.5671,-2.5648,-2.5647,-2.5639,-2.5642,-2.5678,-2.5677,-2.5653,-2.5651,-2.5655,-2.568,-2.5691,-2.5694,-2.575,-2.5699,-2.5701,-2.5703,-2.5705,-2.5854,-2.5856,0,0,0,0,0,0,-2.5599,-2.5604,-2.567,-2.5672,-2.5619,-2.5642,-2.5645,-2.5663,-2.5677,-2.5677,-2.5656,-2.5653,-2.5687,-2.5691,-2.5695,-2.5763,-2.5702,-2.5705,-2.5707,-2.5852,-2.5855,-2.5857,0,0,0,0,0,0,-2.5597,-2.5605,-2.5669,-2.5638,-2.5645,-2.5646,-2.5665,-2.5664,-2.5675,-2.5679,-2.5679,-2.5668,-2.5685,-2.5691,-2.5734,-2.5764,-2.5706,-2.5709,-2.5849,-2.5853,-2.5856,-2.5901,0,0,0,0,0,0,-2.5595,-2.5605,-2.5627,-2.5638,-2.5647,-2.5708,-2.5667,-2.5666,-2.5681,-2.5677,-2.569,-2.569,-2.5684,-2.573,-2.5737,-2.5767,-2.5711,-2.5847,-2.5851,-2.5855,-2.5897,-2.5905,-2.5912,0,0,0,0,0,-2.5592,-2.5638,-2.5628,-2.5636,-2.5675,-2.5709,-2.5714,-2.5706,-2.5683,-2.5706,-2.5708,-2.569,-2.576,-2.5735,-2.5743,-2.5774,-2.5845,-2.585,-2.5854,-2.5893,-2.5904,-2.5912,0,0,0,0,0,0,-2.563,-2.564,-2.5628,-2.568,-2.5694,-2.5704,-2.5731,-2.5718,-2.5738,-2.5734,-2.5723,-2.5726,-2.5772,-2.5778,-2.5749,-2.5831,-2.5799,-2.5805,-2.5825,-2.5835,-2.5843,-2.584,-2.5714,0,0,0,0,0,-2.5645,-2.5673,-2.5679,-2.5725,-2.5732,-2.5731,-2.5746,-2.5738,-2.5752,-2.5758,-2.5764,-2.5778,-2.5803,-2.5819,-2.5843,-2.5898,-2.59,-2.5923,-2.5931,-2.5938,-2.5943,-2.5972,-2.5982,-2.5872,-2.5872,-2.5872,0,0,-2.5675,-2.5684,-2.5702,-2.5733,-2.5742,-2.5771,-2.5736,-2.5768,-2.5789,-2.5763,-2.5804,-2.5809,-2.5824,-2.5873,-2.5895,-2.5879,-2.5974,-2.5944,-2.5949,-2.5951,-2.5978,-2.5988,-2.5997,-2.5876,-2.5875,-2.5875,0,0,-2.5745,-2.5755,-2.5793,-2.5804,-2.5819,-2.5818,-2.5827,-2.5839,-2.5841,-2.5882,-2.5863,-2.5888,-2.5932,-2.5943,-2.5955,-2.6029,-2.6013,-2.6037,-2.6078,-2.6106,-2.6114,-2.6122,-2.6148,-2.6157,-2.6043,-2.6043,-2.6043,0,-2.5781,-2.5823,-2.5814,-2.5848,-2.5861,-2.5839,-2.5878,-2.5889,-2.5911,-2.5921,-2.5903,-2.5957,-2.5966,-2.6017,-2.6035,-2.6046,-2.6055,-2.6035,-2.6114,-2.6121,-2.6128,-2.6153,-2.6162,-2.6045,-2.6045,-2.6045,-2.6045,0,-2.5866,-2.5896,-2.5925,-2.5947,-2.5964,-2.6,-2.5996,-2.6014,-2.6006,-2.6006,-2.6049,-2.6058,-2.6083,-2.6095,-2.6087,-2.6145,-2.6135,-2.6116,-2.6083,-2.6142,-2.6164,-2.6174,-2.6049,-2.6048,-2.6048,-2.6047,0,0,-2.596,-2.5977,-2.5988,-2.5997,-2.6013,-2.6036,-2.6071,-2.6095,-2.611,-2.6127,-2.6155,-2.6193,-2.6175,-2.6188,-2.6181,-2.6206,-2.6263,-2.6184,-2.6184,-2.6198,-2.6327,-2.6341,-2.6352,-2.6253,-2.6255,-2.6257,-2.6326,0,-2.603,-2.609,-2.6083,-2.614,-2.6167,-2.6147,-2.6177,-2.6189,-2.6191,-2.6214,-2.6216,-2.6242,-2.6217,-2.6225,-2.6249,-2.6251,-2.6289,-2.6247,-2.6279,-2.628,-2.6275,-2.6364,-2.6378,-2.6443,-2.6335,-2.6336,-2.6337,0,-2.6118,-2.6138,-2.6198,-2.6209,-2.622,-2.6247,-2.6268,-2.6291,-2.6305,-2.6304,-2.6319,-2.6308,-2.6342,-2.631,-2.6357,-2.6328,-2.6341,-2.6344,-2.6346,-2.6348,-2.6312,-2.6367,-2.6464,-2.6473,-2.6351,-2.635,-2.6349,0,-2.618,-2.6221,-2.6262,-2.6271,-2.6285,-2.6305,-2.6312,-2.6324,-2.6339,-2.6358,-2.6367,-2.639,-2.6402,-2.642,-2.6415,-2.6392,-2.6463,-2.643,-2.6463,-2.6463,-2.6478,-2.6477,-2.6577,-2.6488,-2.6488,-2.6488,-2.6487,0,-2.6258,-2.6295,-2.629,-2.6315,-2.6356,-2.6348,-2.6388,-2.6393,-2.6404,-2.6429,-2.6413,-2.6437,-2.643,-2.6454,-2.645,-2.6489,-2.6495,-2.6495,-2.6494,-2.6496,-2.6496,-2.6504,-2.6499,-2.649,-2.649,-2.6489,-2.6489,0,-2.6333,-2.6332,-2.6375,-2.6385,-2.6388,-2.6418,-2.6426,-2.6449,-2.645,-2.6482,-2.6489,-2.649,-2.6517,-2.6514,-2.6545,-2.6542,-2.659,-2.6584,-2.6586,-2.6584,-2.6616,-2.6613,-2.6724,-2.6738,-2.6641,-2.6642,-2.6643,0,-2.6383,-2.6411,-2.6424,-2.6439,-2.6447,-2.6473,-2.6488,-2.6481,-2.6498,-2.6516,-2.6537,-2.6562,-2.6582,-2.6627,-2.663,-2.6653,-2.6646,-2.6684,-2.665,-2.6651,-2.6646,-2.6644,-2.6646,-2.669,-2.6691,-2.6692,-2.6693,0,-2.647,-2.6468,-2.649,-2.6512,-2.653,-2.6548,-2.6563,-2.6577,-2.6571,-2.659,-2.6618,-2.6633,-2.6664,-2.669,-2.6712,-2.6718,-2.6705,-2.6704,-2.6712,-2.6715,-2.6714,-2.6714,-2.6603,-2.6701,-2.67,-2.6699,-2.6699,-2.6699,-2.6533,-2.6557,-2.657,-2.6595,-2.6606,-2.6621,-2.6643,-2.6646,-2.6669,-2.6693,-2.6688,-2.6719,-2.6732,-2.6759,-2.6769,-2.6792,-2.6779,-2.6791,-2.6795,-2.6798,-2.6801,-2.6711,-2.6796,-2.6796,-2.6796,-2.6796,-2.6796,0,-2.6619,-2.6626,-2.665,-2.6672,-2.6691,-2.6677,-2.6693,-2.6711,-2.6738,-2.6751,-2.6771,-2.6802,-2.6827,-2.6832,-2.6856,-2.6874,-2.6868,-2.688,-2.6878,-2.688,-2.6812,-2.6802,-2.6884,-2.6884,-2.6884,-2.6884,-2.6884,-2.6884,-2.6666,-2.6705,-2.6705,-2.6749,-2.6755,-2.6785,-2.6796,-2.6809,-2.6819,-2.6855,-2.6875,-2.6879,-2.6888,-2.6912,-2.6934,-2.6935,-2.6944,-2.6959,-2.6957,-2.6894,-2.6885,-2.6876,-2.6866,-2.6961,-2.6961,-2.7022,-2.7023,-2.7023]},{"header":{"parameterUnit":"m.s-1","parameterCategory":1,"la1":30.2991,"la2":30.254,"lo1":-89.0895,"lo2":-89.0444,"dy":0.0017,"dx":0.0017,"nx":28,"ny":28,"refTime":"2025-04-29T21:00:00:Z","depth":0,"parameterNumber":3,"parameterNumberName":"V-component_of_WINDS"},"data":[0,0,0,0,0,0,0,0,0,0,0,0,0,0,0,0,0,0,0,0,0,0,0,0,0,0,0,0,0,0,0,0,0,0,0,0,0,0,0,0,0,0,0,0,0,0,0,0,0,0,0,0,0,0,0,0,0,0,3.5208,3.5208,0,3.5224,3.5224,3.5224,3.5183,3.5181,3.518,3.5179,3.5193,3.5195,3.5196,0,0,0,0,0,0,0,0,0,0,0,0,0,3.5139,3.514,3.5208,3.5208,3.5208,3.5224,3.5224,3.5224,3.5183,3.5181,3.518,3.5178,3.5193,3.5195,3.5197,0,0,0,0,0,0,0,0,0,0,0,0,0,3.5163,3.5141,3.5208,3.519,3.5188,3.5224,3.5224,3.5224,3.5183,3.5181,3.5179,3.5178,3.5192,3.5194,3.5197,3.525,0,0,3.5204,3.5205,0,0,0,0,0,0,0,0,3.5162,3.5166,3.5192,3.5191,3.5189,3.5199,3.5205,3.5233,3.5184,3.5185,3.5179,3.5177,3.5197,3.5199,3.5206,3.5251,3.5252,3.5204,3.5206,3.5207,3.5207,0,0,0,0,0,0,0,3.516,3.5165,3.5214,3.5192,3.5191,3.518,3.5181,3.521,3.5202,3.5185,3.5182,3.5184,3.5196,3.5204,3.5206,3.5252,3.5204,3.5206,3.5208,3.5209,3.5341,3.5343,0,0,0,0,0,0,3.5161,3.5164,3.5214,3.5215,3.5171,3.5183,3.5184,3.5198,3.5201,3.52,3.5186,3.5182,3.5201,3.5203,3.5206,3.5268,3.5207,3.5209,3.521,3.5339,3.5341,3.5343,0,0,0,0,0,0,3.516,3.5166,3.5213,3.5188,3.5194,3.5186,3.5202,3.5199,3.5207,3.5202,3.52,3.5196,3.5199,3.5203,3.524,3.5268,3.521,3.5212,3.5336,3.5339,3.5342,3.5392,0,0,0,0,0,0,3.5158,3.5166,3.5187,3.5189,3.5195,3.5247,3.5204,3.5201,3.5212,3.5207,3.5211,3.521,3.5198,3.5236,3.5242,3.527,3.5214,3.5334,3.5338,3.5341,3.5388,3.5397,3.5404,0,0,0,0,0,3.5156,3.52,3.5188,3.5194,3.5221,3.5249,3.5252,3.5238,3.5214,3.5235,3.5231,3.5209,3.5264,3.524,3.5246,3.5276,3.5332,3.5336,3.5341,3.5385,3.5395,3.5404,0,0,0,0,0,0,3.52,3.52,3.5187,3.5233,3.5241,3.5241,3.5267,3.525,3.5264,3.5259,3.5241,3.5242,3.5282,3.5283,3.5256,3.5327,3.5294,3.53,3.5325,3.5335,3.5343,3.5341,3.5216,0,0,0,0,0,3.5215,3.5239,3.5237,3.5278,3.5283,3.5274,3.5286,3.5275,3.5282,3.5285,3.5284,3.5292,3.531,3.5323,3.534,3.5389,3.5388,3.5412,3.542,3.5427,3.5431,3.5456,3.5466,3.5359,3.5359,3.5359,0,0,3.5247,3.525,3.5265,3.5287,3.5292,3.5315,3.5277,3.5304,3.5321,3.5289,3.5323,3.5323,3.533,3.5373,3.5392,3.5375,3.5461,3.5433,3.5438,3.5439,3.5462,3.5472,3.5481,3.5362,3.5361,3.5361,0,0,3.5316,3.5321,3.5355,3.5361,3.5369,3.5364,3.5372,3.5375,3.5374,3.5408,3.5384,3.5404,3.5437,3.5443,3.545,3.5522,3.5502,3.5528,3.5569,3.5593,3.5602,3.5609,3.5633,3.5642,3.5533,3.5533,3.5533,0,3.5353,3.5388,3.5375,3.5403,3.5412,3.5386,3.5419,3.5426,3.5439,3.5446,3.5427,3.5468,3.5471,3.5514,3.5531,3.5539,3.5546,3.5526,3.5602,3.5609,3.5616,3.5638,3.5647,3.5536,3.5536,3.5536,3.5535,0,3.5433,3.5458,3.5485,3.5499,3.5511,3.5542,3.5532,3.5547,3.5535,3.5531,3.5566,3.5569,3.5585,3.5595,3.5584,3.5637,3.5626,3.5605,3.5571,3.5629,3.565,3.5658,3.5541,3.554,3.5539,3.5538,0,0,3.5529,3.5536,3.5545,3.5551,3.5558,3.5577,3.5606,3.5623,3.5635,3.5646,3.5669,3.5698,3.5679,3.5687,3.5676,3.5697,3.5752,3.5674,3.5674,3.5686,3.5808,3.5822,3.5833,3.574,3.5741,3.5743,3.5807,0,3.5595,3.5646,3.5635,3.5685,3.5706,3.5682,3.5707,3.5714,3.5711,3.5729,3.5725,3.5746,3.572,3.5724,3.5745,3.5741,3.5776,3.5737,3.5759,3.576,3.5756,3.5844,3.5859,3.592,3.5815,3.5817,3.5818,0,3.5679,3.5693,3.5745,3.5749,3.5758,3.5781,3.5795,3.5813,3.582,3.5816,3.5826,3.5811,3.5839,3.5806,3.5844,3.5817,3.5826,3.5826,3.5828,3.5828,3.5791,3.5844,3.5939,3.5947,3.5831,3.583,3.5829,0,3.5741,3.5774,3.5808,3.5814,3.582,3.5836,3.5839,3.5845,3.5855,3.5868,3.5874,3.589,3.5898,3.5911,3.59,3.5877,3.5939,3.5905,3.5935,3.5935,3.5947,3.5946,3.6043,3.5957,3.5957,3.5956,3.5956,0,3.5816,3.5848,3.5836,3.5857,3.5893,3.5879,3.5914,3.5914,3.5919,3.594,3.592,3.5939,3.5925,3.5942,3.5934,3.5966,3.597,3.5967,3.5964,3.5968,3.5968,3.5971,3.5966,3.5959,3.5958,3.5958,3.5957,0,3.589,3.5884,3.592,3.5922,3.5924,3.5949,3.5951,3.597,3.5967,3.5992,3.5997,3.5991,3.6011,3.6002,3.6023,3.6017,3.6058,3.605,3.6055,3.6052,3.6082,3.6078,3.6182,3.6194,3.6103,3.6104,3.6104,0,3.5937,3.5961,3.5966,3.5979,3.5983,3.6004,3.6014,3.6003,3.6015,3.6025,3.6042,3.6061,3.6075,3.6107,3.6104,3.612,3.6111,3.6147,3.6113,3.6116,3.6109,3.6107,3.6109,3.6153,3.6154,3.6154,3.6155,0,3.602,3.6016,3.6032,3.6048,3.6062,3.6074,3.6084,3.6095,3.6084,3.6098,3.6118,3.6129,3.6151,3.6169,3.6182,3.6185,3.6168,3.6166,3.6173,3.6176,3.6177,3.6175,3.6071,3.6163,3.6162,3.6162,3.6161,3.6161,3.608,3.61,3.6107,3.6126,3.6133,3.6143,3.6161,3.6159,3.6176,3.6193,3.6185,3.6208,3.6215,3.6231,3.6236,3.6253,3.6239,3.625,3.6253,3.6255,3.6258,3.6177,3.6256,3.6256,3.6256,3.6255,3.6255,0,3.6161,3.6164,3.6182,3.6197,3.6212,3.6196,3.6206,3.622,3.6241,3.6248,3.6262,3.6285,3.6303,3.6301,3.6317,3.6331,3.6324,3.6336,3.6333,3.6334,3.6271,3.6262,3.6341,3.6341,3.6341,3.6341,3.6341,3.6341,3.6204,3.6237,3.6233,3.6269,3.6271,3.6294,3.6301,3.631,3.6316,3.6343,3.6357,3.6356,3.636,3.6376,3.6391,3.639,3.6396,3.641,3.6406,3.6347,3.6338,3.633,3.6322,3.6412,3.6412,3.6467,3.6468,3.6468]}]]